Regional Weather Roundup
Issued by NWS

Home | Current Version | Previous Version | Graphics & Text | Print | Product List | Glossary On
Versions: 1 2 3 4 5 6 7 8 9 10 11 12 13 14 15 16 17 18 19 20 21 22 23 24 25 26 27 28 29 30 31 32 33 34 35 36 37 38 39 40 41 42 43 44 45 46 47 48 49 50
638
ASUS43 KFSD 252002
RWRSD

WEATHER ROUNDUP FOR SOUTH DAKOTA
NATIONAL WEATHER SERVICE SIOUX FALLS SD
300 PM CDT MON SEP 25 2017

NOTE: "FAIR" INDICATES FEW OR NO CLOUDS BELOW 12,000 FEET WITH NO
SIGNIFICANT WEATHER AND/OR OBSTRUCTIONS TO VISIBILITY.


SDZ001>005-009-010-012>017-252100-
NORTHWEST AND NORTH CENTRAL SOUTH DAKOTA

CITY           SKY/WX    TMP DP  RH WIND       PRES   REMARKS
FAITH            N/A     50  41  71 N7        30.10F
MOBRIDGE       CLOUDY    54  45  71 N9        30.08F
$$

SDZ012>016-024>037-041>051-057-063-072>074-252100-
SOUTHWEST AND SOUTH CENTRAL SOUTH DAKOTA

CITY           SKY/WX    TMP DP  RH WIND       PRES   REMARKS
RAPID CTY ARPT NOT AVBL
PIERRE         CLOUDY    53  44  71 N10       30.08F
CUSTER         CLOUDY    44  36  73 W9        30.09F
ELLSWORTH AFB  CLOUDY    51  44  79 E3        30.09S
PHILIP         CLOUDY    56  43  61 NE7       30.09F
PINE RIDGE     CLOUDY    52  42  69 N5        30.10S
SPEARFISH      CLOUDY    46  43  87 VRB5      30.10F
WINNER         CLOUDY    53  46  77 N12       30.09R
$$

SDZ004>011-016>023-039-040-252100-
NORTHEAST SOUTH DAKOTA

CITY           SKY/WX    TMP DP  RH WIND       PRES   REMARKS
ABERDEEN       CLOUDY    53  47  79 N10       30.11R
WATERTOWN      CLOUDY    52  48  86 N9        30.04F
BROOKINGS      CLOUDY    55  49  80 NE9       30.02F
SISSETON         N/A     53  48  83 N12       30.07R
$$

SDZ017-020-022-023-036>040-048>070-252100-
SOUTHEAST SOUTH DAKOTA

CITY           SKY/WX    TMP DP  RH WIND       PRES   REMARKS
SIOUX FALLS    LGT RAIN  56  54  93 NE8       30.00F
HURON          CLOUDY    53  48  83 N13       30.06F
CHAMBERLAIN    CLOUDY    54  49  81 N8        30.07S
MITCHELL       CLOUDY    53  50  89 N12       30.04F
YANKTON        LGT RAIN  54  53  97 N13       29.97F
$$

ABBREVIATIONS USED IN REMARKS
   TC - TEMPERATURE IN CELSIUS
  WCI - WIND CHILL INDEX
   HX - HEAT INDEX
  VSB - VISIBILITY





USA.gov is the U.S. government's official web portal to all federal, state and local government web resources and services.